Location: Banff
(51.1670°N, 115.5670°W)
Time: 10:22:30
(UTC-06:00)

Amateur Radio Satellites - All Passes

Search period start: 20 September 2017 09:52
Search period end: 21 September 2017 09:52
Location: Banff, 51.1670°N, 115.5670°W

Satellite Date Start Highest point End Downlink Frequencies (MHz)
Time Altitude Azimuth
AO-73 20 Sep 09:57:48 10:02:16 50° 99° (E) 10:06:43 145.935
ZACube-1 20 Sep 09:58:13 10:02:45 56° 100° (E) 10:07:15 437.345
Oscar 11 20 Sep 10:01:39 10:05:45 38° 97° (E) 10:09:49 .
HO-68 20 Sep 10:07:55 10:14:56 58° 296° (WNW) 10:21:56 435.675
SEEDS 20 Sep 10:13:45 10:17:35 35° 293° (WNW) 10:21:23 437.485
UNISAT 6 20 Sep 10:16:01 10:20:17 58° 71° (ENE) 10:24:40 437.425
CUBEBUG 2 20 Sep 10:23:15 10:27:29 36° 294° (WNW) 10:31:47 437.445
CUTE 1.7 + AOD 2 20 Sep 10:35:02 10:37:50 17° 301° (WNW) 10:40:37 437.475
UWE-3 20 Sep 10:38:14 10:42:34 41° 292° (WNW) 10:46:56 435.000/436.395/437.385
TIGRISAT 20 Sep 10:40:46 10:45:06 90° 243° (WSW) 10:49:35 435.000
AAUSAT CUBESAT 2 20 Sep 10:48:14 10:51:56 32° 294° (WNW) 10:55:36 437.432
PRISM 20 Sep 10:48:45 10:52:51 72° 73° (ENE) 10:56:57 437.425
RS-15 20 Sep 10:56:23 11:08:08 46° 346° (NNW) 11:19:37 29.354- 29.394
FO-29 20 Sep 10:59:56 11:04:51 29° 266° (W) 11:09:29 435.910
EO-88 20 Sep 11:09:48 11:12:59 27° 95° (E) 11:16:09 145.990 - 145.960
NANOSAT C BR1 20 Sep 11:14:03 11:16:26 15° 57° (ENE) 11:18:50 145.865
DELFI C3 20 Sep 11:16:37 11:20:30 55° 101° (E) 11:24:20 145.870
M-CUBED/EXP-1 PRIME 20 Sep 11:17:43 11:19:46 14° 51° (NE) 11:21:45 437.505
AIST 2D 20 Sep 11:29:43 11:33:03 38° 70° (ENE) 11:36:24 435.315
Max Valier Satellite 20 Sep 11:33:46 11:37:32 66° 103° (ESE) 11:41:15 145.860
AO-73 20 Sep 11:34:31 11:38:14 25° 298° (WNW) 11:41:57 145.935
ZACube-1 20 Sep 11:35:06 11:38:41 23° 299° (WNW) 11:42:16 437.345
Oscar 11 20 Sep 11:38:03 11:41:47 28° 296° (WNW) 11:45:29 .
DUCHIFAT 1 20 Sep 11:43:30 11:46:50 23° 62° (ENE) 11:50:11 145.980
POLYITAN 1 20 Sep 11:50:54 11:54:40 33° 66° (ENE) 11:58:29 437.675
UNISAT 6 20 Sep 11:54:19 11:57:25 19° 271° (W) 12:00:33 437.425
YUBILEINY 20 Sep 11:55:07 12:00:12 17° 71° (ENE) 12:05:18 435.215
EO-79 20 Sep 11:56:12 12:00:03 36° 67° (ENE) 12:03:57 145.935-145.965
HO-68 20 Sep 11:56:55 12:01:17 18° 319° (NW) 12:05:40 435.675
Oscar 19 20 Sep 12:03:51 12:05:14 11° 47° (NE) 12:06:37 437.125/150
QB50P2 20 Sep 12:08:09 12:12:14 51° 70° (ENE) 12:16:22 145.880/145.840
AO-7 20 Sep 12:18:08 12:20:57 12° 19° (NNE) 12:23:45 .
LO-87 20 Sep 12:18:31 12:21:29 24° 94° (E) 12:24:28 145.935 - 145.965
TIGRISAT 20 Sep 12:20:49 12:22:31 12° 275° (W) 12:24:14 435.000
PRISM 20 Sep 12:26:28 12:28:37 14° 271° (W) 12:30:45 437.425
BUGSAT 1 20 Sep 12:34:00 12:37:08 22° 62° (ENE) 12:40:18 437.445
O/OREOS (USA 219) 20 Sep 12:40:49 12:45:03 35° 51° (NE) 12:49:16 437.305
EO-88 20 Sep 12:43:26 12:46:38 29° 293° (WNW) 12:49:50 145.990 - 145.960
NANOSAT C BR1 20 Sep 12:47:23 12:51:34 81° 254° (WSW) 12:55:50 145.865
M-CUBED/EXP-1 PRIME 20 Sep 12:49:21 12:53:40 82° 68° (ENE) 12:57:41 437.505
SPROUT 20 Sep 12:50:08 12:51:16 11° 85° (E) 12:52:24 437.525
DELFI C3 20 Sep 12:52:14 12:54:53 18° 299° (WNW) 12:57:33 145.870
Gurwin Techsat 1B 20 Sep 12:55:38 12:59:19 19° 54° (NE) 13:03:01 435.225
AIST 2D 20 Sep 13:03:48 13:06:24 19° 268° (W) 13:09:00 435.315
Max Valier Satellite 20 Sep 13:08:47 13:10:54 15° 300° (WNW) 13:13:00 145.860
ESTCUBE 1 20 Sep 13:11:01 13:15:29 58° 101° (E) 13:19:54 437.505/2401.250
RS-15 20 Sep 13:12:03 13:23:53 49° 20° (NNE) 13:35:12 29.354- 29.394
DUCHIFAT 1 20 Sep 13:18:15 13:22:16 45° 261° (W) 13:26:19 145.980
POLYITAN 1 20 Sep 13:26:42 13:30:28 31° 265° (W) 13:34:15 437.675
EO-79 20 Sep 13:32:16 13:35:53 28° 266° (W) 13:39:33 145.935-145.965
Oscar 19 20 Sep 13:38:25 13:43:26 50° 67° (ENE) 13:48:28 437.125/150
QB50P2 20 Sep 13:45:11 13:48:19 20° 269° (W) 13:51:28 145.880/145.840
YUBILEINY 20 Sep 13:46:44 13:55:20 70° 94° (E) 14:03:59 435.215
LO-87 20 Sep 13:51:44 13:54:57 31° 292° (WNW) 13:58:09 145.935 - 145.965
VELOX 1 20 Sep 13:56:23 14:00:25 34° 97° (E) 14:04:25 145.980
AO-7 20 Sep 14:04:16 14:11:04 29° 45° (NE) 14:17:50 .
BUGSAT 1 20 Sep 14:08:23 14:12:14 45° 261° (W) 14:16:10 437.445
O/OREOS (USA 219) 20 Sep 14:20:15 14:24:30 38° 252° (WSW) 14:28:45 437.305
SPROUT 20 Sep 14:23:32 14:27:51 84° 101° (E) 14:32:09 437.525
M-CUBED/EXP-1 PRIME 20 Sep 14:26:21 14:28:29 13° 264° (W) 14:30:34 437.505
NANOSAT C BR1 20 Sep 14:27:44 14:28:01 10° 275° (W) 14:28:18 145.865
50 SAT 20 Sep 14:27:45 14:30:26 22° 95° (E) 14:33:07 437.505
Gurwin Techsat 1B 20 Sep 14:33:18 14:38:38 87° 252° (WSW) 14:44:00 435.225
ITAMSAT 1 20 Sep 14:37:25 14:40:47 18° 53° (NE) 14:44:10 435.822/435.867
ESTCUBE 1 20 Sep 14:48:30 14:51:56 22° 300° (WNW) 14:55:21 437.505/2401.250
DX 1 20 Sep 15:16:46 15:21:04 61° 102° (ESE) 15:25:21 434.975-435.025
UKube-1 20 Sep 15:17:31 15:21:38 42° 99° (E) 15:25:42 .
Oscar 19 20 Sep 15:18:33 15:23:00 28° 267° (W) 15:27:29 437.125/150
RS-15 20 Sep 15:25:40 15:37:54 90° 211° (SSW) 15:49:26 29.354- 29.394
NO-84 20 Sep 15:32:18 15:35:27 27° 141° (SE) 15:38:25 435.350 FM
VELOX 1 20 Sep 15:32:56 15:36:49 32° 296° (WNW) 15:40:43 145.980
PCSat 20 Sep 15:39:47 15:43:27 19° 107° (ESE) 15:47:07 145.827
ITUPSAT 1 20 Sep 15:44:39 15:46:55 13° 86° (E) 15:49:11 437.325
YUBILEINY 20 Sep 15:45:09 15:52:54 35° 298° (WNW) 16:00:42 435.215
MOZHAYETS 4 20 Sep 15:49:05 15:51:40 15° 87° (E) 15:54:15
AO-7 20 Sep 15:54:33 16:02:55 87° 69° (ENE) 16:11:17 .
50 SAT 20 Sep 16:00:05 16:02:57 28° 293° (WNW) 16:05:50 437.505
SPROUT 20 Sep 16:00:45 16:03:10 15° 303° (WNW) 16:05:35 437.525
SO-50 20 Sep 16:12:28 16:16:44 44° 123° (ESE) 16:21:02 436.795
ITAMSAT 1 20 Sep 16:14:23 16:19:33 88° 76° (ENE) 16:24:47 435.822/435.867
Gurwin Techsat 1B 20 Sep 16:16:23 16:19:23 15° 274° (W) 16:22:24 435.225
DOVE 4 20 Sep 16:17:51 16:19:12 11° 55° (NE) 16:20:32 437.250
BEESAT 20 Sep 16:22:27 16:26:35 28° 94° (E) 16:30:42 436.000
DX 1 20 Sep 16:53:45 16:56:52 20° 301° (WNW) 16:59:59 434.975-435.025
UKube-1 20 Sep 16:53:53 16:57:29 26° 298° (WNW) 17:01:04 .
NO-84 20 Sep 17:09:09 17:12:41 73° 339° (NNW) 17:15:55 435.350 FM
HO-68 20 Sep 17:11:16 17:14:51 15° 38° (NE) 17:18:26 435.675
ITUPSAT 1 20 Sep 17:20:38 17:25:30 86° 105° (ESE) 17:30:19 437.325
PCSat 20 Sep 17:20:42 17:26:09 88° 309° (NW) 17:31:38 145.827
MOZHAYETS 4 20 Sep 17:24:46 17:29:27 83° 286° (WNW) 17:34:05
XW-2C 20 Sep 17:29:39 17:31:49 15° 59° (ENE) 17:33:59 145.795 - 145.815
LilacSat-2 20 Sep 17:37:06 17:39:46 18° 61° (ENE) 17:42:28 437.200
CUTE-I 20 Sep 17:38:37 17:42:47 24° 57° (ENE) 17:46:58 437.470
RS-15 20 Sep 17:39:00 17:48:54 32° 256° (WSW) 17:58:25 29.354- 29.394
CUBESAT XI-V 20 Sep 17:41:49 17:46:10 38° 97° (E) 17:50:29 437.345
NUDT-PHONESAT 20 Sep 17:46:18 17:48:33 15° 60° (ENE) 17:50:49 437.300
AO-7 20 Sep 17:50:04 17:56:42 26° 270° (W) 18:03:23 .
DOVE 4 20 Sep 17:51:47 17:56:12 73° 74° (ENE) 18:00:28 437.250
YUBILEINY 20 Sep 17:52:18 17:53:18 10° 328° (NNW) 17:54:17 435.215
SO-50 20 Sep 17:53:05 17:57:17 38° 324° (NW) 18:01:33 436.795
ITAMSAT 1 20 Sep 17:56:40 17:59:45 16° 273° (W) 18:02:51 435.822/435.867
BEESAT 20 Sep 17:59:58 18:04:32 45° 293° (WNW) 18:09:05 436.000
KAITUO 1B 20 Sep 18:08:06 18:11:15 25° 65° (ENE) 18:14:24 145.475/437.950
KKS-1 20 Sep 18:10:23 18:14:11 27° 94° (E) 18:17:57 437.445
CUTE 1.7 + AOD 2 20 Sep 18:22:09 18:24:23 14° 56° (ENE) 18:26:36 437.475
XW-2D 20 Sep 18:28:22 18:32:07 52° 71° (ENE) 18:35:53 145.860 - 145.880
XW-2B 20 Sep 18:40:31 18:44:21 68° 73° (ENE) 18:48:12 145.730 - 145.750
XW-2F 20 Sep 18:43:21 18:47:09 70° 74° (ENE) 18:51:00 145.980 - 146.000
STARS 20 Sep 18:44:37 18:48:19 26° 94° (E) 18:51:59 437.465
NO-84 20 Sep 18:47:10 18:50:20 39° 359° (N) 18:53:17 435.350 FM
HO-68 20 Sep 18:54:12 19:00:57 47° 61° (ENE) 19:07:44 435.675
ITUPSAT 1 20 Sep 18:59:35 19:02:42 17° 305° (NW) 19:05:50 437.325
XW-2C 20 Sep 19:01:41 19:05:31 70° 258° (WSW) 19:09:24 145.795 - 145.815
MOZHAYETS 4 20 Sep 19:03:23 19:05:53 15° 306° (NW) 19:08:23
PCSat 20 Sep 19:05:44 19:10:17 26° 329° (NNW) 19:14:51 145.827
LilacSat-2 20 Sep 19:09:53 19:13:41 54° 260° (W) 19:17:32 437.200
CUTE-I 20 Sep 19:17:07 19:22:24 67° 257° (WSW) 19:27:44 437.470
NUDT-PHONESAT 20 Sep 19:18:17 19:22:00 62° 259° (W) 19:25:45 437.300
CUBESAT XI-V 20 Sep 19:19:21 19:23:28 32° 296° (WNW) 19:27:33 437.345
AO-73 20 Sep 19:25:12 19:26:44 12° 53° (NE) 19:28:17 145.935
ZACube-1 20 Sep 19:25:26 19:27:24 13° 54° (NE) 19:29:22 437.345
DOVE 4 20 Sep 19:31:54 19:34:24 15° 271° (W) 19:36:49 437.250
SEEDS 20 Sep 19:34:19 19:38:14 38° 68° (ENE) 19:42:11 437.485
SO-50 20 Sep 19:35:58 19:38:57 17° 347° (NNW) 19:41:55 436.795
KAITUO 1B 20 Sep 19:41:38 19:45:07 34° 263° (W) 19:48:38 145.475/437.950
KKS-1 20 Sep 19:46:42 19:50:53 41° 293° (WNW) 19:55:03 437.445
CUBEBUG 2 20 Sep 19:49:33 19:53:38 47° 69° (ENE) 19:57:52 437.445
CUTE 1.7 + AOD 2 20 Sep 19:55:16 19:59:35 90° 75° (ENE) 20:03:54 437.475
UWE-3 20 Sep 20:03:40 20:07:42 40° 67° (ENE) 20:11:52 435.000/436.395/437.385
XW-2D 20 Sep 20:04:06 20:06:36 17° 270° (W) 20:09:08 145.860 - 145.880
AAUSAT CUBESAT 2 20 Sep 20:07:22 20:11:14 39° 68° (ENE) 20:15:08 437.432
XW-2B 20 Sep 20:17:06 20:18:59 13° 272° (W) 20:20:51 145.730 - 145.750
XW-2F 20 Sep 20:20:00 20:21:45 13° 272° (W) 20:23:30 145.980 - 146.000
STARS 20 Sep 20:20:39 20:24:49 43° 293° (WNW) 20:28:58 437.465
NO-84 20 Sep 20:24:52 20:28:01 66° 20° (NNE) 20:30:57 435.350 FM
XW-2A 20 Sep 20:25:28 20:28:53 89° 278° (W) 20:32:21 145.665 - 145.685
HO-68 20 Sep 20:41:55 20:48:44 46° 261° (W) 20:55:36 435.675
PCSat 20 Sep 20:52:27 20:55:35 15° 355° (N) 20:58:42 145.827
AO-73 20 Sep 20:57:49 21:02:07 69° 72° (ENE) 21:06:34 145.935
ZACube-1 20 Sep 20:58:34 21:02:54 78° 74° (ENE) 21:07:23 437.345
Oscar 11 20 Sep 21:00:56 21:05:12 55° 71° (ENE) 21:09:29 .
CUTE-I 20 Sep 21:01:59 21:03:29 11° 277° (W) 21:05:00 437.470
STRAND 1 20 Sep 21:04:36 21:09:39 54° 100° (E) 21:14:41 437.568
SEEDS 20 Sep 21:10:24 21:14:01 27° 266° (W) 21:17:39 437.485
SO-50 20 Sep 21:18:06 21:21:05 17° 12° (NNE) 21:24:04 436.795
CUBEBUG 2 20 Sep 21:27:12 21:30:32 22° 269° (W) 21:33:57 437.445
CUTE 1.7 + AOD 2 20 Sep 21:34:26 21:36:03 12° 274° (W) 21:37:40 437.475
Tancredo 1 20 Sep 21:35:29 21:36:36 12° 141° (SE) 21:37:43 437.200
BEESAT 3 20 Sep 21:37:16 21:40:56 35° 121° (ESE) 21:44:38 437.485
BEESAT 2 20 Sep 21:38:39 21:40:46 14° 112° (ESE) 21:42:52 435.950
AO-85 20 Sep 21:40:39 21:42:52 15° 113° (ESE) 21:45:08 145.980
UWE-3 20 Sep 21:40:41 21:44:18 26° 267° (W) 21:48:02 435.000/436.395/437.385
AAUSAT CUBESAT 2 20 Sep 21:43:19 21:46:49 25° 267° (W) 21:50:18 437.432
EO-88 20 Sep 21:52:12 21:55:19 26° 66° (ENE) 21:58:27 145.990 - 145.960
YUBILEINY 20 Sep 21:54:55 21:59:00 14° 40° (NE) 22:03:05 435.215
FO-29 20 Sep 22:01:36 22:06:01 25° 93° (E) 22:10:42 435.910
NO-84 20 Sep 22:02:37 22:05:07 24° 221° (SW) 22:07:32 435.350 FM
DELFI C3 20 Sep 22:06:20 22:10:15 64° 73° (ENE) 22:14:10 145.870
Max Valier Satellite 20 Sep 22:17:02 22:20:41 62° 73° (ENE) 22:24:24 145.860
TIGRISAT 20 Sep 22:28:00 22:30:37 15° 87° (E) 22:33:14 435.000
AO-73 20 Sep 22:36:12 22:38:52 16° 272° (W) 22:41:36 145.935
PCSat 20 Sep 22:37:11 22:41:07 20° 21° (NNE) 22:45:01 145.827
ZACube-1 20 Sep 22:37:27 22:39:48 14° 274° (W) 22:42:10 437.345
Oscar 11 20 Sep 22:38:30 22:41:40 19° 270° (W) 22:44:52 .
ESTCUBE 1 20 Sep 22:40:44 22:43:28 16° 56° (NE) 22:46:13 437.505/2401.250
STRAND 1 20 Sep 22:44:17 22:48:35 28° 300° (WNW) 22:52:53 437.568
nSIGHT-1 20 Sep 22:56:31 22:58:38 16° 141° (SE) 23:00:45 .
SO-50 20 Sep 22:58:29 23:02:45 37° 36° (NE) 23:07:02 436.795
LO-87 20 Sep 22:59:28 23:02:15 22° 64° (ENE) 23:05:03 145.935 - 145.965
Tancredo 1 20 Sep 23:08:01 23:10:41 51° 159° (SSE) 23:13:20 437.200
BEESAT 2 20 Sep 23:13:51 23:17:54 88° 311° (NW) 23:21:59 435.950
BEESAT 3 20 Sep 23:14:40 23:18:29 39° 321° (NW) 23:22:19 437.485
AO-85 20 Sep 23:18:47 23:22:41 77° 312° (NW) 23:26:43 145.980
EO-88 20 Sep 23:25:39 23:28:54 30° 264° (W) 23:32:12 145.990 - 145.960
UNISAT 6 20 Sep 23:38:34 23:43:13 65° 102° (ESE) 23:47:53 437.425
DELFI C3 20 Sep 23:43:11 23:45:25 15° 271° (W) 23:47:40 145.870
ISS 20 Sep 23:46:05 23:49:03 32° 150° (SSE) 23:52:03 437.550
FO-29 20 Sep 23:46:18 23:51:29 57° 291° (WNW) 23:57:03 435.910
SPROUT 20 Sep 23:47:25 23:50:13 17° 59° (ENE) 23:53:03 437.525
YUBILEINY 20 Sep 23:50:20 23:58:41 46° 68° (ENE) 00:07:00 435.215
Max Valier Satellite 20 Sep 23:53:01 23:54:56 13° 272° (W) 23:56:51 145.860
PRISM 20 Sep 23:59:55 00:03:57 56° 101° (E) 00:07:56 437.425
TIGRISAT 21 Sep 00:03:14 00:07:53 83° 287° (WNW) 00:12:36 435.000
ESTCUBE 1 21 Sep 00:15:07 00:19:41 85° 256° (WSW) 00:24:15 437.505/2401.250
PCSat 21 Sep 00:20:25 00:25:45 52° 45° (NE) 00:31:02 145.827
AIST 2D 21 Sep 00:22:46 00:25:41 23° 94° (E) 00:28:34 435.315
NANOSAT C BR1 21 Sep 00:28:14 00:29:50 12° 86° (E) 00:31:26 145.865
nSIGHT-1 21 Sep 00:31:17 00:34:29 60° 160° (SSE) 00:37:43 .
LO-87 21 Sep 00:32:17 00:35:31 33° 263° (W) 00:38:47 145.935 - 145.965
SO-50 21 Sep 00:38:56 00:43:20 47° 236° (WSW) 00:47:46 436.795
Tancredo 1 21 Sep 00:42:28 00:45:12 78° 358° (N) 00:47:55 437.200
DX 1 21 Sep 00:43:01 00:45:37 16° 56° (NE) 00:48:13 434.975-435.025
UKube-1 21 Sep 00:44:07 00:45:30 11° 52° (NE) 00:46:54 .
BEESAT 2 21 Sep 00:53:00 00:56:11 22° 332° (NNW) 00:59:24 435.950
BEESAT 3 21 Sep 00:54:44 00:57:05 15° 344° (NNW) 00:59:25 437.485
DUCHIFAT 1 21 Sep 00:57:15 01:00:26 20° 91° (E) 01:03:36 145.980
VELOX 1 21 Sep 00:58:08 01:02:27 58° 71° (ENE) 01:06:47 145.980
AO-85 21 Sep 01:00:48 01:03:45 20° 336° (NNW) 01:06:47 145.980
50 SAT 21 Sep 01:02:36 01:05:03 20° 64° (ENE) 01:07:32 437.505
POLYITAN 1 21 Sep 01:05:46 01:09:33 29° 95° (E) 01:13:20 437.675
EO-79 21 Sep 01:10:56 01:14:49 33° 96° (E) 01:18:41 145.935-145.965
UNISAT 6 21 Sep 01:16:06 01:19:30 21° 301° (WNW) 01:22:56 437.425
SPROUT 21 Sep 01:21:27 01:25:40 68° 258° (WSW) 01:29:56 437.525
ISS 21 Sep 01:22:02 01:25:20 88° 175° (S) 01:28:38 437.550
QB50P2 21 Sep 01:23:14 01:27:23 47° 99° (E) 01:31:31 145.880/145.840
FO-29 21 Sep 01:33:49 01:35:38 12° 312° (NW) 01:37:28 435.910
PRISM 21 Sep 01:35:59 01:38:52 19° 300° (WNW) 01:41:44 437.425
TIGRISAT 21 Sep 01:41:23 01:43:54 15° 305° (NW) 01:46:26 435.000
BUGSAT 1 21 Sep 01:45:12 01:48:08 18° 91° (E) 01:51:04 437.445
Oscar 19 21 Sep 01:46:54 01:48:34 11° 84° (E) 01:50:13 437.125/150
YUBILEINY 21 Sep 01:47:20 01:55:38 51° 271° (W) 02:03:57 435.215
ESTCUBE 1 21 Sep 01:55:25 01:57:12 12° 274° (W) 01:58:58 437.505/2401.250
AIST 2D 21 Sep 01:55:45 01:58:55 30° 292° (WNW) 02:02:03 435.315
M-CUBED/EXP-1 PRIME 21 Sep 01:57:59 02:00:32 20° 99° (E) 02:03:01 437.505
BEESAT 21 Sep 01:59:57 02:01:18 11° 49° (NE) 02:02:41 436.000
NANOSAT C BR1 21 Sep 02:01:54 02:06:11 89° 269° (W) 02:10:27 145.865
PCSat 21 Sep 02:04:07 02:09:01 35° 246° (WSW) 02:13:53 145.827
nSIGHT-1 21 Sep 02:07:33 02:10:49 80° 360° (N) 02:14:06 .
UKube-1 21 Sep 02:16:28 02:20:44 69° 72° (ENE) 02:25:02 .
DX 1 21 Sep 02:16:54 02:21:14 81° 254° (WSW) 02:25:37 434.975-435.025
Tancredo 1 21 Sep 02:17:04 02:19:46 61° 199° (SSW) 02:22:27 437.200
DUCHIFAT 1 21 Sep 02:32:15 02:36:23 51° 290° (WNW) 02:40:31 145.980
BEESAT 2 21 Sep 02:33:39 02:35:22 12° 356° (N) 02:37:04 435.950
50 SAT 21 Sep 02:34:20 02:37:23 33° 262° (W) 02:40:27 437.505
BEESAT 3 21 Sep 02:34:29 02:36:14 12° 7° (N) 02:37:59 437.485
VELOX 1 21 Sep 02:36:06 02:39:15 19° 269° (W) 02:42:25 145.980
POLYITAN 1 21 Sep 02:41:27 02:45:23 35° 293° (WNW) 02:49:17 437.675
AO-85 21 Sep 02:43:50 02:45:41 13° 1° (N) 02:47:34 145.980
Gurwin Techsat 1B 21 Sep 02:44:40 02:49:03 25° 92° (E) 02:53:24 435.225
EO-79 21 Sep 02:46:45 02:50:32 32° 295° (WNW) 02:54:20 145.935-145.965
MOZHAYETS 4 21 Sep 02:55:18 02:59:07 26° 62° (ENE) 03:02:57
ITUPSAT 1 21 Sep 02:55:28 02:59:32 28° 61° (ENE) 03:03:37 437.325
ISS 21 Sep 02:58:33 03:01:52 89° 352° (N) 03:05:11 437.550
QB50P2 21 Sep 02:59:31 03:02:56 24° 298° (WNW) 03:06:22 145.880/145.840
O/OREOS (USA 219) 21 Sep 03:00:47 03:02:52 13° 98° (E) 03:04:59 437.305
CUBESAT XI-V 21 Sep 03:15:56 03:17:47 12° 52° (NE) 03:19:38 437.345
BUGSAT 1 21 Sep 03:19:42 03:23:49 56° 289° (WNW) 03:27:56 437.445
Oscar 19 21 Sep 03:23:40 03:28:51 71° 103° (ESE) 03:34:00 437.125/150
M-CUBED/EXP-1 PRIME 21 Sep 03:31:59 03:35:09 34° 299° (WNW) 03:38:11 437.505
BEESAT 21 Sep 03:33:27 03:38:07 57° 69° (ENE) 03:42:50 436.000
NANOSAT C BR1 21 Sep 03:39:05 03:41:15 14° 304° (NW) 03:43:25 145.865
nSIGHT-1 21 Sep 03:43:55 03:47:09 62° 199° (SSW) 03:50:22 .
YUBILEINY 21 Sep 03:47:42 03:50:12 11° 295° (WNW) 03:52:44 435.215
AO-7 21 Sep 03:51:21 03:57:13 21° 87° (E) 04:03:02 .
Tancredo 1 21 Sep 03:52:14 03:53:56 15° 216° (SW) 03:55:36 437.200
UKube-1 21 Sep 03:54:38 03:57:14 16° 271° (W) 03:59:52 .
DX 1 21 Sep 03:57:11 03:58:09 11° 274° (W) 03:59:07 434.975-435.025
BEESAT 3 21 Sep 04:11:46 04:15:08 24° 31° (NNE) 04:18:26 437.485
BEESAT 2 21 Sep 04:12:03 04:14:41 16° 20° (NNE) 04:17:18 435.950
ITAMSAT 1 21 Sep 04:22:36 04:26:29 21° 90° (E) 04:30:22 435.822/435.867
Gurwin Techsat 1B 21 Sep 04:24:08 04:29:21 58° 291° (WNW) 04:34:33 435.225
AO-85 21 Sep 04:24:26 04:27:36 20° 25° (NNE) 04:30:55 145.980
MOZHAYETS 4 21 Sep 04:31:34 04:36:02 48° 261° (W) 04:40:33
ITUPSAT 1 21 Sep 04:32:34 04:37:10 46° 261° (W) 04:41:49 437.325
ISS 21 Sep 04:35:08 04:38:11 35° 209° (SSW) 04:41:12 437.550
O/OREOS (USA 219) 21 Sep 04:37:02 04:41:33 89° 270° (W) 04:46:09 437.305
CUBESAT XI-V 21 Sep 04:49:37 04:54:17 66° 72° (ENE) 04:58:59 437.345
Oscar 19 21 Sep 05:03:46 05:07:42 22° 303° (WNW) 05:11:38 437.125/150
BEESAT 21 Sep 05:12:35 05:16:15 22° 268° (W) 05:19:57 436.000
KKS-1 21 Sep 05:12:59 05:17:12 46° 68° (ENE) 05:21:28 437.445
nSIGHT-1 21 Sep 05:20:48 05:23:02 17° 218° (SW) 05:25:14 .
AO-7 21 Sep 05:42:58 05:51:20 80° 109° (ESE) 05:59:38 .
STARS 21 Sep 05:45:44 05:49:51 43° 68° (ENE) 05:54:00 437.465
DOVE 4 21 Sep 05:46:39 05:48:16 12° 87° (E) 05:49:55 437.250
BEESAT 3 21 Sep 05:49:05 05:53:05 71° 231° (SW) 05:57:00 437.485
BEESAT 2 21 Sep 05:49:21 05:53:20 49° 42° (NE) 05:57:16 435.950
RS-15 21 Sep 05:55:43 06:06:08 35° 105° (ESE) 06:16:32 29.354- 29.394
ITAMSAT 1 21 Sep 06:01:16 06:06:28 68° 289° (WNW) 06:11:37 435.822/435.867
AO-85 21 Sep 06:04:23 06:08:40 71° 46° (NE) 06:13:18 145.980
Gurwin Techsat 1B 21 Sep 06:06:03 06:08:16 13° 312° (NW) 06:10:29 435.225
O/OREOS (USA 219) 21 Sep 06:18:30 06:21:40 18° 319° (NW) 06:24:50 437.305
CUBESAT XI-V 21 Sep 06:28:50 06:32:07 19° 271° (W) 06:35:25 437.345
LilacSat-2 21 Sep 06:39:29 06:41:05 12° 87° (E) 06:42:41 437.200
STRAND 1 21 Sep 06:48:04 06:52:01 23° 58° (ENE) 06:55:59 437.568
KKS-1 21 Sep 06:50:25 06:53:59 24° 267° (W) 06:57:35 437.445
KAITUO 1B 21 Sep 07:07:59 07:10:31 17° 90° (E) 07:13:00 145.475/437.950
DOVE 4 21 Sep 07:22:23 07:26:35 84° 283° (WNW) 07:30:52 437.250
STARS 21 Sep 07:22:46 07:26:22 25° 266° (W) 07:30:00 437.465
BEESAT 2 21 Sep 07:27:27 07:30:53 26° 242° (WSW) 07:34:16 435.950
CUTE-I 21 Sep 07:28:55 07:33:43 33° 95° (E) 07:38:29 437.470
XW-2D 21 Sep 07:29:47 07:33:23 37° 97° (E) 07:36:57 145.860 - 145.880
AO-7 21 Sep 07:36:19 07:43:27 34° 311° (NW) 07:50:35 .
CUTE 1.7 + AOD 2 21 Sep 07:36:59 07:38:24 11° 85° (E) 07:39:49 437.475
XW-2B 21 Sep 07:41:58 07:45:42 48° 99° (E) 07:49:24 145.730 - 145.750
ITAMSAT 1 21 Sep 07:42:20 07:45:02 14° 310° (NW) 07:47:45 435.822/435.867
XW-2F 21 Sep 07:44:17 07:48:01 49° 100° (E) 07:51:42 145.980 - 146.000
AO-85 21 Sep 07:45:26 07:48:44 21° 244° (WSW) 07:52:13 145.980
XW-2C 21 Sep 08:03:06 08:06:58 85° 104° (ESE) 08:10:46 145.795 - 145.815
HO-68 21 Sep 08:03:37 08:09:45 29° 92° (E) 08:15:52 435.675
RS-15 21 Sep 08:04:59 08:17:22 89° 309° (NW) 08:29:42 29.354- 29.394
LilacSat-2 21 Sep 08:12:00 08:15:52 74° 286° (WNW) 08:19:42 437.200
NUDT-PHONESAT 21 Sep 08:17:01 08:20:47 88° 104° (ESE) 08:24:31 437.300
FO-29 21 Sep 08:20:43 08:24:47 21° 57° (ENE) 08:28:40 435.910
STRAND 1 21 Sep 08:25:42 08:30:46 66° 257° (WSW) 08:35:53 437.568
KAITUO 1B 21 Sep 08:41:07 08:44:47 49° 289° (WNW) 08:48:24 145.475/437.950
AO-73 21 Sep 08:43:02 08:43:58 10° 84° (E) 08:44:51 145.935
ZACube-1 21 Sep 08:43:22 08:45:11 12° 85° (E) 08:46:59 437.345
SEEDS 21 Sep 08:48:11 08:52:05 35° 96° (E) 08:55:55 437.485
DOVE 4 21 Sep 09:01:56 09:03:40 12° 304° (NW) 09:05:24 437.250
XW-2D 21 Sep 09:04:19 09:07:23 23° 296° (WNW) 09:10:26 145.860 - 145.880
UNISAT 6 21 Sep 09:07:48 09:10:28 16° 56° (NE) 09:13:09 437.425
CUTE-I 21 Sep 09:08:52 09:13:55 45° 295° (WNW) 09:18:58 437.470
CUTE 1.7 + AOD 2 21 Sep 09:10:37 09:14:54 89° 76° (ENE) 09:19:08 437.475
CUBEBUG 2 21 Sep 09:10:55 09:15:31 56° 100° (E) 09:20:10 437.445
XW-2A 21 Sep 09:14:39 09:17:59 45° 99° (E) 09:21:18 145.665 - 145.685
XW-2B 21 Sep 09:16:50 09:19:34 19° 298° (WNW) 09:22:17 145.730 - 145.750
XW-2F 21 Sep 09:19:07 09:21:49 19° 298° (WNW) 09:24:29 145.980 - 146.000
AAUSAT CUBESAT 2 21 Sep 09:19:20 09:23:07 34° 96° (E) 09:26:53 437.432
PRISM 21 Sep 09:21:32 09:23:06 12° 55° (NE) 09:24:41 437.425
UWE-3 21 Sep 09:23:44 09:28:13 46° 98° (E) 09:32:43 435.000/436.395/437.385
AO-7 21 Sep 09:30:16 09:33:47 13° 337° (NNW) 09:37:18 .
TIGRISAT 21 Sep 09:31:21 09:34:45 23° 61° (ENE) 09:38:13 435.000
XW-2C 21 Sep 09:38:55 09:40:33 12° 303° (WNW) 09:42:12 145.795 - 145.815
LilacSat-2 21 Sep 09:49:23 09:49:25 10° 305° (NW) 09:49:27 437.200
